Station PNGW3 - Port Wing, WI Image indicating link to RSS feed of recent meteorological observations for station PNGW3


Conditions at PNGW3 as of
(11:40 pm CDT on 04/18/2024)
0440 GMT on 04/19/2024:
     

Click on the graph icon in the table below to see a time series plot of the last five days of that observation.

5-day plot - Wind Direction Wind Direction (WDIR): W ( 260 deg true )
5-day plot - Wind Speed Wind Speed (WSPD): 15.0 kts
5-day plot - Wind Gust Wind Gust (GST): 22.0 kts
5-day plot - Atmospheric Pressure Atmospheric Pressure (PRES):29.96 in
5-day plot - Air Temperature Air Temperature (ATMP): 39.7 °F
5-day plot - Wind Chill Wind Chill (CHILL): 30.9 °F
5-day plot - Wind Speed at 10 Meters Wind Speed at 10 meters (WSPD10M): 15.5 kts
5-day plot - Wind Speed at 20 Meters Wind Speed at 20 meters (WSPD20M): 15.5 kts
5-day plot -  Wind Speed, Wind Gust and Atmospheric Pressure Combined plot of Wind Speed, Gust, and Air Pressure
Previous observations
TIME
(CDT)
5-day plot - Wind Direction
WDIR
 
5-day plot - Wind Speed
WSPD
kts
5-day plot - Wind Gust
GST
kts
5-day plot - Wave Height
WVHT
ft
5-day plot - Dominant Wave Period
DPD
sec
5-day plot - Average Wave Period
APD
sec
5-day plot - Mean Wave Direction
MWD
 
5-day plot - Atmospheric Pressure
PRES
in
5-day plot - Pressure Tendency
PTDY
in
5-day plot - Air Temperature
ATMP
°F
5-day plot - Water Temperature
WTMP
°F
5-day plot - Dew Point
DEWP
°F
5-day plot - Salinity
SAL
psu
5-day plot - Visibility
VIS
nmi
5-day plot - Tide (above MLLW)
TIDE
ft
2024-04-18 11:30 pmWSW 12.0 20.0----29.96- 39.9-----
2024-04-18 11:20 pm W 14.0 19.0----29.96- 40.1-----
2024-04-18 11:10 pm W 14.0 19.0----29.96- 40.1-----
2024-04-18 11:00 pmWSW 13.0 20.0----29.96+0.00 40.3-----
2024-04-18 10:50 pm W 13.0 19.0----29.96- 40.5-----
2024-04-18 10:40 pm W 14.0 21.0----29.97- 40.6-----
2024-04-18 10:30 pmWSW 15.0 21.0----29.97- 40.8-----
2024-04-18 10:20 pmWSW 14.0 26.0----29.97- 41.0-----
2024-04-18 10:10 pmWSW 15.0 22.9----29.97- 41.2-----
2024-04-18 10:00 pm W 13.0 18.1----29.97+0.02 41.2-----
2024-04-18 09:50 pm W 11.1 14.0----29.98- 41.0-----
2024-04-18 09:40 pm W 9.9 17.1----29.98- 40.8-----
2024-04-18 09:30 pm W 14.0 18.1----29.98- 40.8-----
2024-04-18 09:20 pm W 12.0 15.9----29.98- 41.2-----
2024-04-18 09:10 pm W 9.9 15.9----29.98- 41.4-----
2024-04-18 09:00 pm W 12.0 15.0----29.98+0.05 41.5-----
2024-04-18 08:50 pmWSW 11.1 15.0----29.98- 41.9-----
2024-04-18 08:40 pmWSW 11.1 17.1----29.98- 41.7-----
2024-04-18 08:30 pm W 12.0 18.1----29.97- 41.7-----
2024-04-18 08:20 pm W 17.1 21.0----29.97- 41.7-----
2024-04-18 08:10 pm W 11.1 17.1----29.97- 41.9-----
2024-04-18 08:00 pm W 11.1 19.0----29.96+0.05 41.7-----
2024-04-18 07:50 pm W 13.0 22.0----29.96- 42.1-----
2024-04-18 07:40 pm W 13.0 20.0----29.96- 42.1-----
2024-04-18 07:30 pm W 15.0 22.9----29.96- 42.3-----
2024-04-18 07:20 pm W 17.1 22.9----29.95- 42.3-----
2024-04-18 07:10 pm W 14.0 21.0----29.95- 42.1-----
2024-04-18 07:00 pm W 15.9 24.1----29.95+0.05 42.4-----
2024-04-18 06:50 pm W 15.9 21.0----29.95- 43.0-----
2024-04-18 06:40 pm W 14.0 20.0----29.95- 43.0-----
2024-04-18 06:30 pm W 15.9 21.0----29.95- 43.2-----
2024-04-18 06:20 pm W 13.0 18.1----29.94- 43.3-----
2024-04-18 06:10 pm W 14.0 20.0----29.94- 43.9-----
2024-04-18 06:00 pm W 14.0 19.0----29.93+0.02 44.4-----
2024-04-18 05:50 pmWSW 11.1 19.0----29.93- 45.0-----
2024-04-18 05:40 pm W 13.0 20.0----29.93- 45.1-----
2024-04-18 05:30 pm W 13.0 18.1----29.92- 45.1-----
2024-04-18 05:20 pmWSW 14.0 20.0----29.92- 45.9-----
2024-04-18 05:10 pm W 13.0 22.0----29.92- 45.7-----
2024-04-18 05:00 pm W 15.9 21.0----29.91+0.00 45.1-----
2024-04-18 04:50 pm W 15.9 20.0----29.91- 44.8-----
2024-04-18 04:40 pm W 13.0 20.0----29.91- 44.2-----
2024-04-18 04:30 pm W 17.1 21.0----29.91- 44.6-----
2024-04-18 04:20 pm W 15.9 22.0----29.90- 44.1-----
2024-04-18 04:10 pm W 18.1 22.0----29.90- 44.4-----
2024-04-18 04:00 pm W 15.0 19.0----29.90+0.00 44.6-----
2024-04-18 03:50 pm W 15.9 21.0----29.90- 45.1-----
2024-04-18 03:40 pm W 15.0 19.0----29.91- 44.8-----
2024-04-18 03:30 pm W 15.9 22.9----29.91- 45.0-----
2024-04-18 03:20 pm W 18.1 24.1----29.91- 45.0-----
2024-04-18 03:10 pm W 15.0 21.0----29.91- 44.8-----
2024-04-18 03:00 pm W 14.0 19.0----29.91+0.00 45.0-----
2024-04-18 02:50 pm W 14.0 22.0----29.91- 44.8-----
2024-04-18 02:40 pm W 17.1 22.9----29.91- 44.2-----
2024-04-18 02:30 pm W 15.9 22.9----29.91- 45.0-----
2024-04-18 02:20 pm W 17.1 24.1----29.91- 44.4-----
2024-04-18 02:10 pm W 20.0 25.1----29.91- 45.3-----
2024-04-18 02:00 pm W 14.0 22.0----29.91-0.02 45.1-----
2024-04-18 01:50 pm W 15.9 26.0----29.91- 45.0-----
2024-04-18 01:40 pm W 17.1 22.0----29.90- 45.1-----
2024-04-18 01:30 pm W 15.0 22.0----29.90- 45.9-----
2024-04-18 01:20 pm W 15.0 21.0----29.90- 45.7-----
2024-04-18 01:10 pm W 14.0 22.0----29.90- 45.5-----
2024-04-18 01:00 pm W 15.9 22.9----29.90-0.02 45.7-----
2024-04-18 12:50 pm W 15.9 20.0----29.90- 45.5-----
2024-04-18 12:40 pm W 8.9 22.0----29.91- 46.2-----
2024-04-18 12:30 pm W 14.0 22.0----29.91- 45.1-----
2024-04-18 12:20 pm W 15.9 20.0----29.91- 45.1-----
2024-04-18 12:10 pm W 14.0 21.0----29.91- 45.1-----
2024-04-18 12:00 pm W 14.0 20.0----29.91-0.03 45.5-----
2024-04-18 11:50 am W 15.0 21.0----29.91- 45.3-----
2024-04-18 11:40 am W 13.0 19.0----29.92- 44.8-----
2024-04-18 11:30 am W 12.0 19.0----29.92- 45.0-----
2024-04-18 11:20 am W 12.0 17.1----29.93- 45.1-----
2024-04-18 11:10 am W 15.0 19.0----29.93- 45.0-----
2024-04-18 11:00 am W 12.0 15.9----29.93-0.02 44.8-----
2024-04-18 10:50 am W 13.0 18.1----29.93- 44.4-----
2024-04-18 10:40 am W 13.0 19.0----29.93- 44.2-----
2024-04-18 10:30 am W 13.0 18.1----29.93- 44.1-----
2024-04-18 10:20 am W 14.0 18.1----29.92- 43.9-----
2024-04-18 10:10 am W 12.0 15.9----29.92- 44.2-----
2024-04-18 10:00 am W 11.1 15.9----29.92-0.01 45.9-----
2024-04-18 09:50 amWSW 8.9 14.0----29.93- 46.2-----
2024-04-18 09:40 am SW 9.9 13.0----29.93- 45.5-----
2024-04-18 09:30 am SW 8.0 12.0----29.93- 45.0-----
2024-04-18 09:20 am SW 8.9 14.0----29.93- 44.4-----
2024-04-18 09:10 am SW 9.9 13.0----29.93- 44.2-----
2024-04-18 09:00 amSSW 6.0 9.9----29.94+0.02 43.5-----
2024-04-18 08:50 amSSW 6.0 9.9----29.94- 43.0-----
2024-04-18 08:40 amSSW 7.0 8.9----29.95- 42.4-----
2024-04-18 08:30 am SW 6.0 8.9----29.95- 41.9-----
2024-04-18 08:20 amSSW 6.0 9.9----29.95- 41.5-----
2024-04-18 08:10 amSSW 7.0 8.9----29.95- 41.4-----
2024-04-18 08:00 amSSW 7.0 11.1----29.95+0.05 41.0-----
2024-04-18 07:50 amSSW 7.0 9.9----29.94- 41.2-----
2024-04-18 07:40 amSSW 5.1 9.9----29.94- 41.2-----
2024-04-18 07:30 amSSW 7.0 8.9----29.95- 41.2-----
2024-04-18 07:20 amSSW 6.0 8.9----29.94- 41.4-----
2024-04-18 07:10 amSSW 5.1 8.9----29.93- 41.2-----
2024-04-18 07:00 amSSW 6.0 8.9----29.93+0.02 41.2-----
2024-04-18 06:50 amSSW 6.0 8.0----29.93- 41.0-----
2024-04-18 06:40 am SW 5.1 8.0----29.93- 41.0-----
2024-04-18 06:30 am SW 6.0 8.0----29.92- 40.8-----
2024-04-18 06:20 amSSW 6.0 7.0----29.90- 41.0-----
2024-04-18 06:10 amSSW 5.1 8.0----29.90- 41.0-----
2024-04-18 06:00 amSSW 6.0 8.0----29.92+0.04 40.6-----
2024-04-18 05:50 amSSW 6.0 8.0----29.92- 40.6-----
2024-04-18 05:40 amSSW 7.0 8.9----29.91- 40.8-----
2024-04-18 05:30 amSSW 5.1 6.0----29.90- 40.8-----
2024-04-18 05:20 am S 5.1 7.0----29.90- 41.0-----
2024-04-18 05:10 amSSW 5.1 7.0----29.90- 41.2-----
2024-04-18 05:00 am S 6.0 8.0----29.90+0.02 41.2-----
2024-04-18 04:50 am S 6.0 8.9----29.90- 41.0-----
2024-04-18 04:40 amSSW 6.0 8.0----29.90- 41.0-----
2024-04-18 04:30 am S 6.0 8.0----29.91- 41.2-----
2024-04-18 04:20 amSSW 5.1 7.0----29.91- 40.8-----
2024-04-18 04:10 am S 6.0 7.0----29.90- 40.8-----
2024-04-18 04:00 amSSW 6.0 8.0----29.91+0.02 41.0-----
2024-04-18 03:50 am S 7.0 8.0----29.90- 40.8-----
2024-04-18 03:40 amSSW 6.0 8.0----29.90- 40.8-----
2024-04-18 03:30 amSSW 6.0 7.0----29.90- 41.0-----
2024-04-18 03:20 amSSW 6.0 7.0----29.90- 41.4-----
2024-04-18 03:10 amSSW 6.0 8.0----29.88- 41.0-----
2024-04-18 03:00 amSSW 6.0 8.0----29.88+0.00 41.2-----
2024-04-18 02:50 amSSW 6.0 8.0----29.89- 41.4-----
2024-04-18 02:40 amSSW 6.0 8.0----29.88- 41.5-----
2024-04-18 02:30 amSSW 6.0 9.9----29.89- 41.2-----
2024-04-18 02:20 amSSW 7.0 8.0----29.89- 41.4-----
2024-04-18 02:10 amSSW 6.0 7.0----29.89- 41.2-----
2024-04-18 02:00 amSSW 6.0 7.0----29.88+0.01 41.2-----
2024-04-18 01:50 am S 5.1 7.0----29.88- 41.2-----
2024-04-18 01:40 amSSW 5.1 8.9----29.88- 42.6-----
2024-04-18 01:30 am SW 7.0 12.0----29.89- 43.5-----
2024-04-18 01:20 amWSW 8.0 9.9----29.89- 43.5-----
2024-04-18 01:10 amWSW 7.0 12.0----29.88- 43.7-----
2024-04-18 01:00 amWSW 8.0 13.0----29.89+0.03 43.7-----
2024-04-18 12:50 amWSW 8.9 13.0----29.89- 43.7-----
2024-04-18 12:40 amWSW 8.0 11.1----29.89- 44.1-----
2024-04-18 12:30 amWSW 8.0 12.0----29.88- 44.4-----
2024-04-18 12:20 amWSW 8.9 13.0----29.89- 44.4-----
2024-04-18 12:10 amWSW 9.9 13.0----29.89- 44.4-----
2024-04-18 12:00 amWSW 8.0 9.9----29.88+0.03 44.4-----
2024-04-17 11:50 pmWSW 7.0 8.9----29.87- 44.4-----